Regional Weather Roundup
Issued by NWS

Home | Current Version | Previous Version | Text Only | Print | Product List | Glossary Off
Versions: 1 2 3 4 5 6 7 8 9 10 11 12 13 14 15 16 17 18 19 20 21 22 23 24 25 26 27 28 29 30 31 32 33 34 35 36 37 38 39 40 41 42 43 44 45 46 47 48 49 50

000
ASUS43 KMPX 150701
RWRMN
WEATHER ROUNDUP FOR MINNESOTA
NATIONAL WEATHER SERVICE TWIN CITIES/CHANHASSEN MN
200 AM CDT MON SEP 15 2014


NOTE: "FAIR" INDICATES FEW OR NO CLOUDS BELOW 12,000 FEET WITH NO
SIGNIFICANT WEATHER AND/OR OBSTRUCTIONS TO VISIBILITY. N/A MEANS
CURRENT SKY AND/OR WEATHER CONDITIONS ARE NOT AVAILABLE.

MNZ060>063-068>070-150800-
   Twin Cities Metro

CITY           SKY/WX    TMP DP  RH WIND       PRES   REMARKS
TWIN CITIES    LGT RAIN  53  45  74 N5        30.15S
ST PAUL        CLOUDY    52  46  80 N6        30.16S
CRYSTAL        CLOUDY    52  45  77 CALM      30.14F
BLAINE         MOCLDY    52  46  82 CALM      30.15S
LAKEVILLE      RAIN      50  48  93 CALM      30.14F
EDEN PRAIRIE   CLOUDY    53  46  77 CALM      30.14F
SOUTH ST PAUL  CLOUDY    54  45  69 N5        30.15S
LAKE ELMO      MOCLDY    52  46  82 N3        30.16S
$$
MNZ001>005-007-008-013>017-022>024-027-028-150800-
   Northwest Minnesota

CITY           SKY/WX    TMP DP  RH WIND       PRES   REMARKS
BEMIDJI        CLOUDY    45  43  93 W5        30.15S
HALLOCK        CLEAR     39  36  87 CALM      30.17R
ROSEAU         CLEAR     43  37  81 W7        30.15S
WARROAD        CLEAR     39  36  87 W5        30.15R
THIEF RVR FALL CLOUDY    46  39  76 CALM      30.16S
CROOKSTON      CLOUDY    45  43  93 W3        30.18S
FOSSTON        CLOUDY    43  39  87 CALM      30.17S
DETROIT LAKES  MOCLDY    46  43  87 NW5       30.17S
MOORHEAD       CLOUDY    48  46  93 CALM      30.18S
PARK RAPIDS    CLOUDY    43  41  93 CALM      30.16R
MAHNOMEN       CLOUDY    45  43  91 CALM      30.17R
$$
MNZ006-009>011-018-025>026-150800-
   North Central Minnesota

CITY           SKY/WX    TMP DP  RH WIND       PRES   REMARKS
BAUDETTE       MOCLDY    42  40  92 W3        30.14R
FLAG ISLAND    CLOUDY    43  39  87 W10       30.12S
INTL FALLS     PTCLDY    44  42  93 W6        30.11R
WASKISH        MOCLDY    46  43  87 CALM      30.14S
BIG FORK       CLOUDY    46  43  87 NW2       30.13S
LONGVILLE      CLOUDY    39  37  93 CALM      30.14S
GRAND RAPIDS   CLEAR     43  37  81 CALM      30.13R
CRANE LAKE     CLOUDY    45  43  93 CALM      30.11S
ORR            CLOUDY    46  43  87 W3        30.09S
COOK           CLOUDY    45  43  93 CALM      30.11S
WALKER         CLOUDY    45  42  91 W5        30.15R
$$
MNZ012-019>021-037-150800-
   Northeast Minnesota

CITY           SKY/WX    TMP DP  RH WIND       PRES   REMARKS
DULUTH         CLEAR     44  41  89 NW8       30.11S
ELY            CLOUDY    43  43 100 W3        30.09S
HIBBING        MOCLDY    45  42  89 NW5       30.12R
EVELETH        CLEAR     43  41  93 CALM      30.12R
DULUTH HARBOR  CLEAR     50  45  81 W7        30.13R
TWO HARBORS    MOCLDY    46  41  81 CALM      30.09R
SILVER BAY     PTCLDY    45  45 100 NW5       30.07S
GRAND MARAIS     N/A     47  43  86 CALM      30.06S
G MARAIS ARPRT PTCLDY    43  37  81 W8        30.06S
$$
MNZ029>031-032-039>041-046>048-054>057-064-150800-
   West Central Minnesota

CITY           SKY/WX    TMP DP  RH WIND       PRES   REMARKS
FERGUS FALLS   MOCLDY    43  41  93 CALM      30.18S FOG
WHEATON        CLOUDY    45  43  93 CALM      30.20R
MORRIS         MOCLDY    46  45  93 N5        30.16R
ALEXANDRIA     PTCLDY    47  43  86 N6        30.17R
ELBOW LAKE     FAIR      45  44  97 NW3       30.17R
WADENA         CLOUDY    39  39 100 CALM      30.16S
GLENWOOD       PTCLDY    45  43  93 NW6       30.16S
APPLETON       CLOUDY    46  43  87 W5        30.17R
BENSON         MOCLDY    45  43  93 CALM      30.17R
ORTONVILLE     CLOUDY    48  43  81 NW3       30.18R
MADISON        CLOUDY    52  46  82 NW5       30.17S
WILLMAR        FAIR      48  46  93 NW3       30.17S
$$
MNZ033>034-036-042>043-049>051-058-059-150800-
   Central Minnesota

CITY           SKY/WX    TMP DP  RH WIND       PRES   REMARKS
ST CLOUD       MOCLDY    47  44  90 CALM      30.15S
SAUK CENTRE    FAIR      40  39  97 CALM      30.16S
PAYNESVILLE    MIX PCPN  43  43 100 CALM      30.16S
AITKIN         CLEAR     39  34  81 CALM      30.13F HAZE
PINE RIVER     PTCLDY    39  39 100 CALM      30.18R
BRAINERD       CLEAR     39  39 100 CALM      30.16S FOG
STAPLES        PTCLDY    41  39  93 CALM      30.16S
LONG PRAIRIE     N/A     43  41  93 CALM      30.17R
LITTLE FALLS   MOCLDY    45  43  93 CALM      30.16S
LITCHFIELD       N/A     50  48  93 CALM      30.16S
BUFFALO        CLOUDY    50  45  83 CALM      30.16S
MAPLE LAKE     CLOUDY    48  46  95 CALM      30.16S
$$
MNZ037-044-045-052-053-150800-
   East Central Minnesota

CITY           SKY/WX    TMP DP  RH WIND       PRES   REMARKS
PRINCETON      MOCLDY    45  45 100 CALM      30.16R
MORA           CLOUDY    41  37  87 CALM      30.17S
CAMBRIDGE      PTCLDY    46  39  76 CALM      30.14S
RUSH CITY      PTCLDY    41  40  95 CALM      30.15S
MOOSE LAKE     CLEAR     37  37 100 SW3       30.13S
HINCKLEY       FAIR      41  41 100 CALM      30.15S
CLOQUET        CLEAR     41  39  93 W6        30.12S
MCGREGOR       CLEAR     43  41  93 CALM      30.14F
$$
MNZ071>073-080-081-089-090-097-098-150800-
   Southwest Minnesota

CITY           SKY/WX    TMP DP  RH WIND       PRES   REMARKS
MONTEVIDEO     CLOUDY    50  43  76 NW3       30.17S
GRANITE FALLS  RAIN      49  48  98 W5        30.18R
CANBY          LGT RAIN  49  47  93 NW5       30.18S
MARSHALL       CLOUDY    48  45  87 NW3       30.15R
REDWOOD FALLS  CLOUDY    50  48  93 NW5       30.15S
OLIVIA         LGT RAIN  50  46  87 CALM      30.15S
PIPESTONE      CLOUDY    48  45  87 CALM      30.15R
WINDOM         DRIZZLE   48  46  93 NE3       30.15S
WORTHINGTON    CLOUDY    48  46  93 NE5       30.15S
JACKSON        CLOUDY    50  46  87 E6        30.14F
TRACY          RAIN      49  47  93 CALM      30.16R
SLAYTON        DRIZZLE   48  47  96 CALM      30.16S
$$
MNZ065>067-074>077-082>085-091>093-150800-
   South Central Minnesota

CITY           SKY/WX    TMP DP  RH WIND       PRES   REMARKS
MANKATO        CLOUDY    52  45  76 CALM      30.15R
NEW ULM        CLOUDY    50  48  93 CALM      30.14S
ST JAMES       LGT RAIN  52  48  87 CALM      30.17R
FAIRMONT       CLOUDY    50  45  81 N3        30.15S
GLENCOE        RAIN      52  47  83 CALM      30.15S
FARIBAULT      RAIN      54  46  76 CALM      30.14F
OWATONNA       CLOUDY    52  46  82 CALM      30.15R
WASECA         CLOUDY    48  43  81 CALM      30.16S
ALBERT LEA     LGT RAIN  52  48  87 N3        30.15S
$$
MNZ078>079-086>088-094>096-150800-
   Southeast Minnesota

CITY           SKY/WX    TMP DP  RH WIND       PRES   REMARKS
ROCHESTER      LGT RAIN  50  47  89 CALM      30.16R
RED WING       CLOUDY    52  50  93 CALM      30.14R
STANTON        CLOUDY    51  49  92 CALM      30.13F
DODGE CENTER   DRIZZLE   52  48  87 CALM      30.14S
WINONA         LGT RAIN  54  52  94 CALM      30.14F
AUSTIN         RAIN      48  46  93 NE3       30.15R
PRESTON        CLOUDY    52  48  87 NE3       30.15S
$$
ABBREVIATIONS USED IN REMARKS
   TC - TEMPERATURES IN CELSIUS
  WCI - WIND CHILL INDEX
   HX - HEAT INDEX
  VSB - VISIBILITY
$$


USA.gov is the U.S. government's official web portal to all federal, state and local government web resources and services.